CZ-6A DEB, 54510

Orbit data source: Space-Track

CZ-6A DEB, 54510 is space debris in SSO originally from a launch on Fri, 11 Nov 2022 UTC launched from the Taiyaun Space Center, China (TSC). Debris objects in space refer to the collection of defunct objects orbiting the Earth. Examples of debris include non-operational satellites, rocket bodies, and fragments generated from explosions, collisions, or faulty payload assembly.

Loading next visibility...
Identifier
54510, 2022-151JN
Orbit
SSO
Country
Flag of CNCN / PRC
Related business
Manufacturer
SAST
Mission
Spacecraft
Bus & Motor
Unknown
Mass
Unknown
Launch date (UTC)
2022-11-11 (4 years ago)
Launch vehicle
Unknown
Launch site
Taiyaun Space Center, China (TSC)
Object type
Payload
Rocket body
Debris
Shape & HBR
Unknown shape, 0.1 m
Radar Cross Section
Medium (>0.1 m² and <1 m²)

Expand to show TLE details & history
Last TLE update: 2 days ago

TLE from 2 days ago
0 CZ-6A DEB
1 54510U 22151JN  26171.39573999  .00001688  00000-0  49521-3 0  9994
2 54510  98.6743 219.2958 0059259 286.5864  72.8824 14.44195583188955
Epoch: 2026-06-20T09:29Z
TLE epoch observation values (Epoch: 2026-06-20T09:29:51.935Z)
Latitude
0.00006°
Longitude
168.21842°
Altitude
735.422 km
Speed
7.494 km/s
True Right ascension
14h 37m 10s
True Declination
0° 00' 00"
Sunlit
Object was in full shadow at epoch
Visualization orbit readout
Latitude
Unknown
Longitude
Unknown
Altitude
Unknown
Speed
Unknown
Apparent Right ascension
Unknown
Apparent Declination
Unknown
Sunlit
N/A
Visualization observer readout
Local Sidereal Time
21:25:14
Azimuth
Unknown
Elevation
Unknown
Doppler factor
Unknown
Orbital elements
Apogee altitude
783.986 km
Perigee altitude
699.602 km
Semi-major axis
7,119.931 km
Eccentricity
0.00593
Inclination
98.6743°
RAAN
219.2958°
Arg. of periapsis
286.5864°
True anomaly
73.53278°
Mean anomaly
72.8824°
Eccentric anomaly
73.20745°
Mean motion
3.61268 °/min
Orbital period
99.65 mins
BSTAR
0.00049521
Loading maneuver chart data...
Computing Atmospheric mass density...
Loading historical data...
Loading historical data...
Loading historical data...
Loading historical data...
Loading historical data...
Loading historical data...
Loading historical data...

Documentation

Showing up to 5 results
|